{"data":{"norad_id":49810,"epoch":"2026-09-19T06:07:21.032256Z","epoch_age_seconds":118758,"freshness":"FRESH","line1":"1 49810U 21116B   26262.25510454 -.00000091  00000+0  00000+0 0  9996","line2":"2 49810  57.1231 339.1333 0003390 223.4355 140.7508  1.70476672 29812","mean_motion":1.70476672,"eccentricity":0.000339,"inclination_deg":57.1231,"raan_deg":339.1333,"arg_perigee_deg":223.4355,"mean_anomaly_deg":140.7508,"bstar":0,"rev_number":2981,"period_min":844.69035153385,"perigee_km":23211.839355443,"apogee_km":23231.908162738,"semimajor_km":29600.010759091,"source":"CELESTRAK","updated_at":"2026-09-20T09:00:46.498155Z"}}